Corpus Christi NAS, TX

6:13 AM CDT on June 28, 2017 (GMT -0500)
Corpus Christi Naval Air Station-Truax

Weather History for KNGP - October, 2012

Change the Weather History Date:

Thursday, October 4, 2012

  Actual Average Record
Temperature  
Mean Temperature 84 °F -  
Max Temperature 89 °F 82 °F 91 °F (1998)
Min Temperature 79 °F 68 °F 66 °F (2010)
Cooling Degree Days 18    
Growing Degree Days 34 (Base 50)    
Moisture  
Dew Point 74 °F    
Average Humidity 77    
Maximum Humidity 90    
Minimum Humidity 62    
Precipitation  
Precipitation 0.00 in - - ()
Sea Level Pressure  
Sea Level Pressure 30.03 in    
Wind  
Wind Speed 16 mph (SSE)    
Max Wind Speed 26 mph    
Max Gust Speed 32 mph    
Visibility 10 miles    
Events      
Averages and records for this station are not official NWS values.
T = Trace of Precipitation, MM = Missing Value Source: NWS Daily Summary

Daily Weather History Graph

Daily Weather History Graph

Search for Another Location

Airport or City:

Trip Planner

Search our weather history database for the weather conditions in past years. The results will help you decide how hot, cold, wet, or windy it might be!

Date:

Astronomy

Oct. 04, 2012 Rise Set
Actual Time 7:23 AM CDT 7:11 PM CDT
Civil Twilight 7:00 AM CDT 7:34 PM CDT
Nautical Twilight 6:33 AM CDT 8:01 PM CDT
Astronomical Twilight 6:06 AM CDT 8:28 PM CDT
Moon 10:11 PM CDT (10/4) 11:18 AM CDT (10/4)
Length of Visible Light 12h 34m
Length of Day
11h 47m
Waning Gibbous, 82% of the Moon is Illuminated
Oct 4
Waning Gibbous
Oct 8
Last Quarter
Oct 15
New
Oct 21
First Quarter
Oct 29
Full

Hourly Weather History & Observations

Time (CDT) Temp. Heat Index Dew Point Humidity Pressure Visibility Wind Dir Wind Speed Gust Speed Precip Events Conditions
12:56 AM 81.0 °F 86.7 °F 75.0 °F 82% 29.99 in 10.0 mi SSE 18.4 mph 24.2 mph N/A   Partly Cloudy
1:56 AM 80.1 °F 85.1 °F 75.0 °F 85% 29.99 in 10.0 mi SSE 13.8 mph - N/A   Partly Cloudy
2:30 AM 80.6 °F 86.2 °F 75.2 °F 84% 29.99 in 10.0 mi South 13.8 mph - N/A   Mostly Cloudy
2:56 AM 81.0 °F 86.7 °F 75.0 °F 82% 29.99 in 10.0 mi South 12.7 mph 23.0 mph N/A   Mostly Cloudy
3:10 AM 80.6 °F 86.2 °F 75.2 °F 84% 29.99 in 10.0 mi SSE 12.7 mph - N/A   Scattered Clouds
3:45 AM 80.6 °F 86.2 °F 75.2 °F 84% 30.00 in 10.0 mi South 12.7 mph - N/A   Mostly Cloudy
3:56 AM 80.1 °F 85.4 °F 75.9 °F 87% 29.99 in 10.0 mi South 11.5 mph - N/A   Mostly Cloudy
4:03 AM 80.6 °F 86.2 °F 75.2 °F 84% 29.99 in 10.0 mi South 12.7 mph - N/A   Scattered Clouds
4:56 AM 80.1 °F 85.4 °F 75.9 °F 87% 30.00 in 10.0 mi SSE 11.5 mph - N/A   Clear
5:56 AM 79.0 °F - 75.9 °F 90% 30.01 in 10.0 mi SSE 12.7 mph - N/A   Clear
6:56 AM 79.0 °F - 75.9 °F 90% 30.02 in 10.0 mi SSE 12.7 mph - N/A   Partly Cloudy
7:56 AM 80.1 °F 85.4 °F 75.9 °F 87% 30.02 in 10.0 mi SSE 13.8 mph - N/A   Partly Cloudy
8:56 AM 82.9 °F 90.8 °F 75.9 °F 79% 30.04 in 10.0 mi SSE 17.3 mph 21.9 mph N/A   Partly Cloudy
9:56 AM 84.0 °F 91.9 °F 75.0 °F 74% 30.06 in 10.0 mi SSE 17.3 mph - N/A   Mostly Cloudy
10:37 AM 84.2 °F 92.3 °F 75.2 °F 74% 30.07 in 10.0 mi SSE 18.4 mph - N/A   Scattered Clouds
10:56 AM 86.0 °F 93.8 °F 73.9 °F 67% 30.07 in 10.0 mi SSE 18.4 mph 26.5 mph N/A   Scattered Clouds
11:56 AM 87.1 °F 95.4 °F 73.9 °F 65% 30.07 in 10.0 mi South 20.7 mph 28.8 mph N/A   Scattered Clouds
12:56 PM 87.1 °F 95.4 °F 73.9 °F 65% 30.07 in 10.0 mi SSE 21.9 mph 27.6 mph N/A   Scattered Clouds
1:39 PM 87.8 °F 95.6 °F 73.4 °F 62% 30.06 in 10.0 mi SSE 18.4 mph 27.6 mph N/A   Mostly Cloudy
1:56 PM 88.0 °F 96.5 °F 73.9 °F 63% 30.05 in 10.0 mi SE 19.6 mph - N/A   Mostly Cloudy
2:56 PM 88.0 °F 96.5 °F 73.9 °F 63% 30.04 in 10.0 mi SSE 19.6 mph 29.9 mph N/A   Scattered Clouds
3:56 PM 87.1 °F 95.4 °F 73.9 °F 65% 30.03 in 10.0 mi SSE 26.5 mph 32.2 mph N/A   Scattered Clouds
4:56 PM 86.0 °F 93.8 °F 73.9 °F 67% 30.02 in 10.0 mi SSE 23.0 mph 31.1 mph N/A   Scattered Clouds
5:56 PM 84.0 °F 90.2 °F 73.0 °F 69% 30.04 in 10.0 mi SSE 20.7 mph 27.6 mph N/A   Scattered Clouds
6:56 PM 82.0 °F 86.7 °F 72.0 °F 71% 30.04 in 10.0 mi SSE 21.9 mph 27.6 mph N/A   Partly Cloudy
7:56 PM 81.0 °F 85.2 °F 72.0 °F 74% 30.05 in 10.0 mi SSE 18.4 mph - N/A   Partly Cloudy
8:56 PM 81.0 °F 85.8 °F 73.0 °F 77% 30.07 in 10.0 mi SSE 13.8 mph - N/A   Clear
9:56 PM 80.1 °F 84.2 °F 73.0 °F 79% 30.08 in 10.0 mi SSE 11.5 mph - N/A   Clear
10:56 PM 79.0 °F - 73.0 °F 82% 30.09 in 10.0 mi SSE 11.5 mph - N/A   Clear
11:56 PM 79.0 °F - 73.0 °F 82% 30.07 in 10.0 mi SSE 11.5 mph - N/A   Clear